| time (UTC) | temp F | wind direction | speed MPH | gust MPH | rain 1hr in | rain 24hr in | rain mn in | humidity % | barometer mb |
| 20260503211529 | 44 | 0 | 0.0 | 0.0 | 0.00 | 0.05 | 0.03 | 84 | 1013.8 |
| 20260503211016 | 44 | 0 | 0.0 | 0.0 | 0.00 | 0.05 | 0.03 | 84 | 1013.8 |
| 20260503210512 | 44 | 0 | 0.0 | 0.0 | 0.00 | 0.05 | 0.03 | 84 | 1013.7 |
| 20260503210028 | 44 | 0 | 0.0 | 0.0 | 0.00 | 0.05 | 0.03 | 84 | 1013.7 |
| 20260503205510 | 44 | 0 | 0.0 | 0.0 | 0.00 | 0.09 | 0.03 | 84 | 1013.7 |
| 20260503205015 | 45 | 0 | 0.0 | 2.0 | 0.00 | 0.09 | 0.03 | 84 | 1013.7 |
| 20260503204528 | 45 | 0 | 0.0 | 2.0 | 0.00 | 0.09 | 0.03 | 84 | 1013.7 |
| 20260503204011 | 45 | 0 | 0.0 | 0.0 | 0.00 | 0.09 | 0.03 | 84 | 1013.5 |
| 20260503203509 | 45 | 0 | 0.0 | 0.0 | 0.00 | 0.09 | 0.03 | 83 | 1013.6 |
| 20260503203034 | 45 | 0 | 0.0 | 0.0 | 0.00 | 0.09 | 0.03 | 83 | 1013.6 |
| 20260503202514 | 46 | 0 | 0.0 | 0.0 | 0.00 | 0.09 | 0.03 | 83 | 1013.4 |
| 20260503202010 | 46 | 0 | 0.0 | 0.0 | 0.00 | 0.09 | 0.03 | 83 | 1013.3 |
| 20260503201531 | 46 | 0 | 0.0 | 0.0 | 0.00 | 0.09 | 0.03 | 82 | 1013.4 |
| 20260503201008 | 47 | 0 | 0.0 | 0.0 | 0.00 | 0.09 | 0.03 | 83 | 1013.3 |
| 20260503200510 | 47 | 0 | 0.0 | 0.0 | 0.00 | 0.09 | 0.03 | 83 | 1013.2 |
| 20260503200033 | 47 | 0 | 0.0 | 0.0 | 0.00 | 0.09 | 0.03 | 83 | 1013.2 |
| 20260503195509 | 47 | 0 | 0.0 | 0.0 | 0.00 | 0.10 | 0.03 | 83 | 1013.2 |
| 20260503195012 | 47 | 0 | 0.0 | 0.0 | 0.00 | 0.10 | 0.03 | 83 | 1013.3 |
| 20260503194531 | 48 | 0 | 0.0 | 0.0 | 0.00 | 0.10 | 0.03 | 83 | 1013.3 |
| 20260503194010 | 48 | 0 | 0.0 | 0.0 | 0.00 | 0.10 | 0.03 | 83 | 1013.3 |
| 20260503193511 | 48 | 0 | 0.0 | 0.0 | 0.00 | 0.10 | 0.03 | 82 | 1013.2 |
| 20260503193033 | 48 | 0 | 0.0 | 0.0 | 0.00 | 0.10 | 0.03 | 82 | 1013.1 |
| 20260503192511 | 48 | 0 | 0.0 | 0.0 | 0.00 | 0.10 | 0.03 | 82 | 1013.1 |
| 20260503192017 | 48 | 0 | 0.0 | 0.0 | 0.00 | 0.10 | 0.03 | 82 | 1013.1 |
| 20260503191528 | 48 | 0 | 0.0 | 0.0 | 0.00 | 0.10 | 0.03 | 82 | 1013.1 |
| 20260503191011 | 48 | 0 | 0.0 | 0.0 | 0.00 | 0.10 | 0.03 | 82 | 1013.1 |
| 20260503190512 | 49 | 0 | 0.0 | 0.0 | 0.00 | 0.10 | 0.03 | 81 | 1013.0 |
| 20260503190028 | 49 | 0 | 0.0 | 0.0 | 0.00 | 0.10 | 0.03 | 81 | 1013.0 |
| 20260503185512 | 49 | 0 | 0.0 | 0.0 | 0.00 | 0.15 | 0.03 | 81 | 1012.9 |
| 20260503185011 | 49 | 0 | 0.0 | 0.0 | 0.00 | 0.15 | 0.03 | 81 | 1012.9 |
| 20260503184529 | 49 | 0 | 0.0 | 0.0 | 0.00 | 0.15 | 0.03 | 81 | 1012.9 |
| 20260503184008 | 49 | 0 | 0.0 | 0.0 | 0.00 | 0.15 | 0.03 | 80 | 1012.9 |
| 20260503183520 | 49 | 0 | 0.0 | 0.0 | 0.00 | 0.15 | 0.03 | 81 | 1012.9 |
| 20260503183038 | 49 | 0 | 0.0 | 0.0 | 0.00 | 0.15 | 0.03 | 80 | 1013.0 |
| 20260503182510 | 49 | 0 | 0.0 | 0.0 | 0.00 | 0.15 | 0.03 | 80 | 1013.0 |
| 20260503182013 | 49 | 0 | 0.0 | 0.0 | 0.00 | 0.15 | 0.03 | 80 | 1013.0 |
| 20260503181601 | 49 | 0 | 0.0 | 0.0 | 0.00 | 0.15 | 0.03 | 79 | 1012.9 |
| 20260503181011 | 49 | 0 | 0.0 | 0.0 | 0.00 | 0.15 | 0.03 | 79 | 1012.8 |
| 20260503180510 | 49 | 0 | 0.0 | 0.0 | 0.00 | 0.15 | 0.03 | 78 | 1012.9 |
| 20260503180029 | 49 | 0 | 0.0 | 0.0 | 0.00 | 0.15 | 0.03 | 79 | 1012.8 |
| 20260503175510 | 49 | 0 | 0.0 | 0.0 | 0.00 | 0.20 | 0.03 | 78 | 1012.8 |
| 20260503175010 | 49 | 0 | 0.0 | 0.0 | 0.00 | 0.20 | 0.03 | 80 | 1012.7 |
| 20260503174529 | 49 | 0 | 0.0 | 0.0 | 0.00 | 0.20 | 0.03 | 80 | 1012.8 |
| 20260503174012 | 49 | 0 | 0.0 | 0.0 | 0.00 | 0.20 | 0.03 | 80 | 1012.7 |
| 20260503173511 | 49 | 0 | 0.0 | 0.0 | 0.00 | 0.20 | 0.03 | 80 | 1012.8 |
| 20260503173042 | 49 | 0 | 0.0 | 0.0 | 0.00 | 0.20 | 0.03 | 80 | 1012.8 |
| 20260503172511 | 48 | 0 | 0.0 | 0.0 | 0.00 | 0.20 | 0.03 | 80 | 1012.8 |
| 20260503172010 | 48 | 0 | 0.0 | 0.0 | 0.00 | 0.20 | 0.03 | 80 | 1012.7 |
| 20260503171528 | 48 | 0 | 0.0 | 0.0 | 0.00 | 0.20 | 0.03 | 80 | 1012.7 |
| 20260503171010 | 48 | 0 | 0.0 | 0.0 | 0.00 | 0.20 | 0.03 | 80 | 1012.8 |
| 20260503170513 | 48 | 0 | 0.0 | 0.0 | 0.00 | 0.20 | 0.03 | 80 | 1012.7 |
| 20260503151008 | 50 | 146 | 0.0 | 4.0 | 0.00 | 0.26 | 0.03 | 77 | 1013.0 |
| 20260503150514 | 50 | 0 | 0.0 | 2.0 | 0.00 | 0.26 | 0.03 | 77 | 1013.1 |
| 20260503131007 | 47 | 0 | 0.0 | 4.0 | 0.00 | 0.32 | 0.03 | 81 | 1014.0 |
| 20260503130508 | 47 | 0 | 0.0 | 3.0 | 0.00 | 0.32 | 0.03 | 83 | 1014.0 |
| 20260503110507 | 46 | 74 | 1.0 | 5.0 | 0.00 | 0.32 | 0.03 | 84 | 1014.4 |
| 20260503090511 | 45 | 0 | 0.0 | 4.0 | 0.00 | 0.32 | 0.03 | 84 | 1014.8 |
| 20260503081527 | 45 | 0 | 0.0 | 0.0 | 0.00 | 0.32 | 0.03 | 85 | 1015.0 |
| 20260503081011 | 44 | 0 | 0.0 | 0.0 | 0.00 | 0.32 | 0.03 | 86 | 1015.0 |
| 20260503080508 | 44 | 0 | 0.0 | 0.0 | 0.00 | 0.32 | 0.03 | 86 | 1015.0 |
| 20260503072508 | 43 | 0 | 0.0 | 4.0 | 0.00 | 0.32 | 0.03 | 88 | 1015.0 |
| 20260503072009 | 43 | 0 | 0.0 | 2.0 | 0.00 | 0.32 | 0.03 | 88 | 1015.0 |
| 20260503071531 | 43 | 0 | 0.0 | 2.0 | 0.00 | 0.32 | 0.03 | 88 | 1014.9 |
| 20260503071008 | 43 | 0 | 0.0 | 1.0 | 0.00 | 0.32 | 0.03 | 88 | 1014.8 |
| 20260503070514 | 43 | 0 | 0.0 | 0.0 | 0.00 | 0.32 | 0.03 | 88 | 1014.9 |
| 20260503055009 | 43 | 0 | 0.0 | 2.0 | 0.00 | 0.32 | 0.03 | 89 | 1014.8 |
| 20260503054527 | 42 | 0 | 0.0 | 2.0 | 0.00 | 0.32 | 0.03 | 89 | 1014.7 |
| 20260503054011 | 43 | 0 | 0.0 | 0.0 | 0.00 | 0.32 | 0.03 | 89 | 1014.7 |
| 20260503053507 | 43 | 0 | 0.0 | 0.0 | 0.00 | 0.32 | 0.03 | 89 | 1014.7 |
| 20260503053036 | 42 | 0 | 0.0 | 0.0 | 0.00 | 0.32 | 0.03 | 89 | 1014.8 |
| 20260503052508 | 42 | 0 | 0.0 | 0.0 | 0.00 | 0.32 | 0.03 | 89 | 1014.7 |
| 20260503052010 | 42 | 0 | 0.0 | 0.0 | 0.00 | 0.32 | 0.03 | 89 | 1014.7 |
| 20260503051530 | 42 | 0 | 0.0 | 0.0 | 0.00 | 0.32 | 0.03 | 90 | 1014.8 |
| 20260503051017 | 42 | 0 | 0.0 | 0.0 | 0.00 | 0.32 | 0.03 | 90 | 1014.8 |
| 20260503050511 | 42 | 0 | 0.0 | 0.0 | 0.00 | 0.32 | 0.03 | 90 | 1014.8 |
| 20260503050027 | 42 | 0 | 0.0 | 0.0 | 0.00 | 0.32 | 0.03 | 90 | 1014.9 |
| 20260503045512 | 42 | 0 | 0.0 | 0.0 | 0.00 | 0.32 | 0.03 | 90 | 1015.0 |
| 20260503045013 | 42 | 0 | 0.0 | 0.0 | 0.00 | 0.32 | 0.03 | 90 | 1015.0 |
| 20260503044559 | 42 | 0 | 0.0 | 0.0 | 0.00 | 0.32 | 0.03 | 89 | 1015.0 |
| 20260503044009 | 42 | 0 | 0.0 | 0.0 | 0.00 | 0.32 | 0.03 | 89 | 1015.0 |
| 20260503043807 | 42 | 0 | 0.0 | 0.0 | 0.00 | 0.32 | 0.03 | 90 | 1015.0 |
| 20260503042509 | 42 | 0 | 0.0 | 0.0 | 0.00 | 0.32 | 0.03 | 89 | 1015.0 |
| 20260503042011 | 42 | 0 | 0.0 | 0.0 | 0.00 | 0.32 | 0.03 | 89 | 1015.0 |
| 20260503041528 | 42 | 0 | 0.0 | 0.0 | 0.00 | 0.32 | 0.03 | 89 | 1015.0 |
| 20260503041007 | 42 | 0 | 0.0 | 0.0 | 0.00 | 0.32 | 0.03 | 89 | 1015.1 |
| 20260503040514 | 42 | 0 | 0.0 | 0.0 | 0.00 | 0.32 | 0.03 | 89 | 1015.1 |
| 20260503040031 | 42 | 0 | 0.0 | 0.0 | 0.00 | 0.32 | 0.03 | 89 | 1015.1 |
| 20260503035510 | 42 | 0 | 0.0 | 2.0 | 0.00 | 0.32 | 0.03 | 89 | 1015.1 |
| 20260503035011 | 43 | 0 | 0.0 | 2.0 | 0.00 | 0.32 | 0.03 | 90 | 1015.1 |
| 20260503034529 | 43 | 0 | 0.0 | 0.0 | 0.00 | 0.32 | 0.03 | 90 | 1015.1 |
| 20260503034010 | 43 | 0 | 0.0 | 0.0 | 0.00 | 0.32 | 0.03 | 90 | 1015.1 |
| 20260503033509 | 43 | 0 | 0.0 | 0.0 | 0.00 | 0.32 | 0.03 | 90 | 1015.1 |
| 20260503033029 | 43 | 0 | 0.0 | 0.0 | 0.00 | 0.32 | 0.03 | 90 | 1015.1 |
| 20260503032509 | 43 | 0 | 0.0 | 0.0 | 0.00 | 0.32 | 0.03 | 90 | 1015.1 |
| 20260503032017 | 43 | 0 | 0.0 | 3.0 | 0.00 | 0.32 | 0.03 | 90 | 1015.2 |
| 20260503031530 | 43 | 0 | 0.0 | 3.0 | 0.00 | 0.32 | 0.03 | 90 | 1015.2 |
| 20260503031011 | 43 | 0 | 0.0 | 1.0 | 0.00 | 0.32 | 0.03 | 90 | 1015.2 |
| 20260503030511 | 43 | 0 | 0.0 | 1.0 | 0.00 | 0.32 | 0.03 | 90 | 1015.3 |
| 20260503030032 | 43 | 0 | 0.0 | 5.0 | 0.00 | 0.32 | 0.03 | 90 | 1015.2 |
| 20260503025512 | 43 | 0 | 1.0 | 5.0 | 0.00 | 0.32 | 0.03 | 89 | 1015.2 |
| 20260503025011 | 43 | 69 | 0.0 | 5.0 | 0.00 | 0.32 | 0.03 | 90 | 1015.2 |
| 20260503024528 | 43 | 0 | 0.0 | 4.0 | 0.00 | 0.32 | 0.03 | 90 | 1015.1 |
| 20260503024010 | 43 | 0 | 0.0 | 4.0 | 0.00 | 0.32 | 0.03 | 90 | 1015.1 |
| 20260503023509 | 43 | 0 | 0.0 | 4.0 | 0.01 | 0.32 | 0.03 | 90 | 1015.2 |
| 20260503023027 | 43 | 0 | 0.0 | 4.0 | 0.01 | 0.32 | 0.03 | 90 | 1015.2 |
| 20260503022508 | 43 | 0 | 0.0 | 4.0 | 0.01 | 0.32 | 0.03 | 90 | 1015.3 |
| 20260503022013 | 43 | 0 | 0.0 | 3.0 | 0.01 | 0.32 | 0.03 | 90 | 1015.3 |
| 20260503021526 | 43 | 0 | 0.0 | 0.0 | 0.01 | 0.32 | 0.03 | 90 | 1015.4 |
| 20260503021011 | 43 | 0 | 0.0 | 0.0 | 0.01 | 0.32 | 0.03 | 90 | 1015.3 |
| 20260503020517 | 43 | 0 | 0.0 | 3.0 | 0.01 | 0.32 | 0.03 | 90 | 1015.4 |
| 20260503020034 | 43 | 0 | 0.0 | 3.0 | 0.01 | 0.32 | 0.03 | 90 | 1015.5 |
| 20260503015511 | 43 | 0 | 0.0 | 3.0 | 0.01 | 0.32 | 0.03 | 90 | 1015.6 |
| 20260503015017 | 43 | 0 | 0.0 | 3.0 | 0.01 | 0.32 | 0.03 | 90 | 1015.6 |
| 20260503014530 | 43 | 0 | 0.0 | 3.0 | 0.02 | 0.32 | 0.03 | 90 | 1015.6 |
| 20260503014010 | 43 | 0 | 0.0 | 0.0 | 0.02 | 0.32 | 0.03 | 90 | 1015.6 |
| 20260503013512 | 43 | 0 | 0.0 | 0.0 | 0.01 | 0.31 | 0.02 | 90 | 1015.6 |
| 20260503013028 | 44 | 0 | 0.0 | 3.0 | 0.01 | 0.31 | 0.02 | 90 | 1015.6 |
| 20260503012516 | 44 | 0 | 0.0 | 3.0 | 0.01 | 0.31 | 0.02 | 90 | 1015.6 |
| 20260503012015 | 44 | 0 | 0.0 | 3.0 | 0.01 | 0.31 | 0.02 | 90 | 1015.6 |
| 20260503011532 | 44 | 0 | 0.0 | 3.0 | 0.01 | 0.31 | 0.02 | 90 | 1015.5 |
| 20260503011008 | 44 | 0 | 0.0 | 3.0 | 0.01 | 0.31 | 0.02 | 90 | 1015.6 |
| 20260503010510 | 44 | 0 | 0.0 | 3.0 | 0.01 | 0.31 | 0.02 | 90 | 1015.5 |
| 20260503010032 | 44 | 0 | 0.0 | 0.0 | 0.01 | 0.31 | 0.02 | 90 | 1015.6 |
| 20260503005510 | 44 | 0 | 0.0 | 2.0 | 0.01 | 0.31 | 0.02 | 90 | 1015.6 |
| 20260503005013 | 44 | 0 | 0.0 | 2.0 | 0.01 | 0.31 | 0.02 | 90 | 1015.7 |
| 20260503004530 | 44 | 0 | 0.0 | 4.0 | 0.00 | 0.30 | 0.01 | 90 | 1015.7 |
| 20260503004010 | 44 | 0 | 0.0 | 4.0 | 0.00 | 0.30 | 0.01 | 90 | 1015.6 |
| 20260503003513 | 44 | 0 | 0.0 | 3.0 | 0.00 | 0.30 | 0.01 | 90 | 1015.7 |
| 20260503003035 | 44 | 0 | 0.0 | 3.0 | 0.00 | 0.30 | 0.01 | 90 | 1015.7 |
| 20260503002510 | 44 | 0 | 0.0 | 0.0 | 0.00 | 0.30 | 0.01 | 90 | 1015.6 |
| 20260503002011 | 44 | 0 | 0.0 | 0.0 | 0.00 | 0.30 | 0.01 | 90 | 1015.6 |
| 20260503001528 | 44 | 0 | 0.0 | 2.0 | 0.00 | 0.30 | 0.01 | 90 | 1015.5 |
| 20260503001010 | 44 | 0 | 0.0 | 2.0 | 0.00 | 0.30 | 0.01 | 90 | 1015.6 |
| 20260503000512 | 44 | 0 | 0.0 | 0.0 | 0.00 | 0.30 | 0.01 | 90 | 1015.5 |
| 20260503000035 | 44 | 0 | 0.0 | 0.0 | 0.01 | 0.30 | 0.01 | 90 | 1015.5 |
| 20260502235511 | 44 | 0 | 0.0 | 4.0 | 0.01 | 0.30 | 0.01 | 90 | 1015.5 |
| 20260502235009 | 45 | 0 | 0.0 | 5.0 | 0.01 | 0.30 | 0.01 | 90 | 1015.6 |
| 20260502234546 | 45 | 0 | 0.0 | 5.0 | 0.01 | 0.30 | 0.01 | 90 | 1015.6 |
| 20260502234012 | 45 | 69 | 1.0 | 5.0 | 0.01 | 0.30 | 0.01 | 89 | 1015.6 |
| 20260502233512 | 45 | 68 | 2.0 | 5.0 | 0.01 | 0.30 | 0.01 | 89 | 1015.6 |
| 20260502233026 | 45 | 0 | 1.0 | 5.0 | 0.01 | 0.30 | 0.01 | 89 | 1015.7 |
| 20260502232510 | 45 | 0 | 0.0 | 5.0 | 0.01 | 0.30 | 0.01 | 89 | 1015.6 |
| 20260502232010 | 45 | 65 | 0.0 | 5.0 | 0.01 | 0.30 | 0.01 | 89 | 1015.6 |
| 20260502231532 | 45 | 0 | 0.0 | 3.0 | 0.01 | 0.30 | 0.01 | 90 | 1015.7 |
| 20260502231013 | 45 | 0 | 0.0 | 0.0 | 0.01 | 0.30 | 0.01 | 90 | 1015.8 |
| 20260502230511 | 45 | 0 | 0.0 | 0.0 | 0.01 | 0.30 | 0.01 | 90 | 1015.7 |
| 20260502230030 | 45 | 0 | 0.0 | 0.0 | 0.00 | 0.29 | 0.00 | 90 | 1015.7 |
| 20260502225508 | 45 | 0 | 0.0 | 0.0 | 0.00 | 0.29 | 0.29 | 90 | 1015.7 |
| 20260502225008 | 45 | 0 | 0.0 | 0.0 | 0.00 | 0.29 | 0.29 | 89 | 1015.8 |
| 20260502224529 | 45 | 0 | 0.0 | 0.0 | 0.00 | 0.29 | 0.29 | 89 | 1015.8 |
| 20260502224017 | 45 | 0 | 0.0 | 0.0 | 0.00 | 0.29 | 0.29 | 89 | 1015.9 |
| 20260502223508 | 45 | 0 | 0.0 | 0.0 | 0.00 | 0.29 | 0.29 | 89 | 1015.9 |
| 20260502223036 | 45 | 0 | 0.0 | 3.0 | 0.01 | 0.29 | 0.29 | 89 | 1016.0 |
| 20260502222511 | 45 | 0 | 0.0 | 3.0 | 0.01 | 0.29 | 0.29 | 89 | 1015.8 |
| 20260502222012 | 45 | 0 | 0.0 | 3.0 | 0.01 | 0.29 | 0.29 | 89 | 1015.9 |
| 20260502221527 | 45 | 0 | 0.0 | 3.0 | 0.01 | 0.29 | 0.29 | 89 | 1016.0 |
| 20260502221015 | 45 | 0 | 0.0 | 8.0 | 0.01 | 0.29 | 0.29 | 89 | 1015.9 |
| 20260502220511 | 45 | 64 | 0.0 | 8.0 | 0.01 | 0.29 | 0.29 | 89 | 1015.8 |
| 20260502220034 | 45 | 57 | 1.0 | 8.0 | 0.02 | 0.29 | 0.29 | 89 | 1015.8 |
| 20260502215510 | 46 | 57 | 0.0 | 4.0 | 0.02 | 0.29 | 0.29 | 89 | 1015.8 |
| 20260502215008 | 46 | 60 | 0.0 | 4.0 | 0.02 | 0.29 | 0.29 | 89 | 1015.8 |
| 20260502214527 | 46 | 91 | 0.0 | 4.0 | 0.02 | 0.29 | 0.29 | 89 | 1015.8 |
| 20260502214014 | 46 | 82 | 0.0 | 4.0 | 0.03 | 0.29 | 0.29 | 89 | 1015.9 |
| 20260502213511 | 46 | 0 | 0.0 | 0.0 | 0.03 | 0.29 | 0.29 | 89 | 1015.9 |
| 20260502213029 | 46 | 0 | 0.0 | 0.0 | 0.02 | 0.28 | 0.28 | 89 | 1015.9 |
| 20260502212511 | 46 | 0 | 0.0 | 5.0 | 0.03 | 0.28 | 0.28 | 89 | 1016.0 |
| 20260502212011 | 46 | 0 | 0.0 | 5.0 | 0.04 | 0.28 | 0.28 | 89 | 1015.8 |